ARG1691 SAZS-SABE

Flight info

Callsign ARG1691
Flight time N/A
Altitude 37000
Route LIMAY2C LIMAY UW26 EGUNO UZ109 ISMIL UT655 ASADA ASADA9R
Aircraft B738/M-SDE2E3FGHIRWXY/LB1

Departure

Time 2026-04-29 02:14
Airport Teniente Luis Candelaria International Airport (SAZS)

Arrival

Time N/A
Airport Aeroparque Jorge Newbery (SABE)
Time Latitude Longitude Altitude Speed Heading
2026-04-29 01:59 -41.14698 -71.16159 2748 ft 0 kts 58°
2026-04-29 02:05 -41.14700 -71.16161 2749 ft 2 kts 58°
2026-04-29 02:05 -41.14714 -71.16189 2750 ft 4 kts 42°
2026-04-29 02:06 -41.14735 -71.16204 2749 ft 4 kts 348°
2026-04-29 02:06 -41.14755 -71.16195 2750 ft 4 kts 345°
2026-04-29 02:06 -41.14780 -71.16191 2740 ft 4 kts 18°
2026-04-29 02:06 -41.14796 -71.16204 2731 ft 4 kts 97°
2026-04-29 02:07 -41.14787 -71.16236 2766 ft 4 kts 113°
2026-04-29 02:07 -41.14779 -71.16259 2761 ft 0 kts 115°
2026-04-29 02:09 -41.14780 -71.16258 2761 ft 0 kts 115°
2026-04-29 02:09 -41.14788 -71.16233 2767 ft 5 kts 113°
2026-04-29 02:09 -41.14803 -71.16187 2754 ft 6 kts 113°
2026-04-29 02:10 -41.14821 -71.16136 2748 ft 7 kts 115°
2026-04-29 02:10 -41.14846 -71.16065 2748 ft 10 kts 116°
2026-04-29 02:10 -41.14884 -71.15961 2749 ft 14 kts 116°
2026-04-29 02:10 -41.14929 -71.15830 2748 ft 17 kts 115°
2026-04-29 02:11 -41.14980 -71.15686 2750 ft 17 kts 115°
2026-04-29 02:11 -41.15029 -71.15546 2749 ft 16 kts 114°
2026-04-29 02:11 -41.15075 -71.15412 2748 ft 16 kts 115°
2026-04-29 02:11 -41.15120 -71.15283 2748 ft 15 kts 115°
2026-04-29 02:12 -41.15166 -71.15152 2748 ft 17 kts 115°
2026-04-29 02:12 -41.15218 -71.15004 2748 ft 19 kts 114°
2026-04-29 02:12 -41.15274 -71.14842 2749 ft 19 kts 115°
2026-04-29 02:12 -41.15329 -71.14684 2750 ft 19 kts 115°
2026-04-29 02:13 -41.15380 -71.14537 2748 ft 12 kts 115°
2026-04-29 02:13 -41.15439 -71.14470 2748 ft 12 kts 188°
2026-04-29 02:13 -41.15516 -71.14522 2748 ft 13 kts 232°
2026-04-29 02:13 -41.15474 -71.14732 2749 ft 52 kts 295°
2026-04-29 02:14 -41.15425 -71.14873 2750 ft 71 kts 295°
2026-04-29 02:14 -41.15126 -71.15728 2755 ft 131 kts 294°
2026-04-29 02:14 -41.14712 -71.16897 3259 ft 144 kts 294°
2026-04-29 02:14 -41.14277 -71.18129 3950 ft 151 kts 290°
2026-04-29 02:15 -41.13829 -71.19444 4776 ft 161 kts 288°
2026-04-29 02:15 -41.13358 -71.20834 5456 ft 171 kts 286°
2026-04-29 02:15 -41.12851 -71.22399 5718 ft 199 kts 286°
2026-04-29 02:15 -41.12279 -71.24133 6328 ft 210 kts 286°
2026-04-29 02:16 -41.11570 -71.25892 7102 ft 231 kts 300°
2026-04-29 02:16 -41.10231 -71.27262 7881 ft 259 kts 318°
2026-04-29 02:16 -41.08424 -71.28093 8548 ft 293 kts 339°
2026-04-29 02:16 -41.06280 -71.28023 9177 ft 326 kts
2026-04-29 02:17 -41.04165 -71.26750 9964 ft 344 kts 36°
2026-04-29 02:17 -41.02473 -71.24491 10663 ft 346 kts 58°
2026-04-29 02:17 -41.01266 -71.22037 11440 ft 344 kts 66°
2026-04-29 02:17 -41.00075 -71.19231 12046 ft 358 kts 68°
2026-04-29 02:18 -40.98851 -71.16241 12404 ft 379 kts 68°
2026-04-29 02:18 -40.97563 -71.13152 13193 ft 385 kts 67°
2026-04-29 02:18 -40.96254 -71.10098 14034 ft 387 kts 66°
2026-04-29 02:18 -40.94881 -71.06962 14798 ft 392 kts 65°
2026-04-29 02:19 -40.93494 -71.03835 15538 ft 396 kts 65°
2026-04-29 02:19 -40.92080 -71.00674 16282 ft 400 kts 64°
2026-04-29 02:19 -40.90662 -70.97476 16934 ft 408 kts 65°
2026-04-29 02:19 -40.89236 -70.94119 17145 ft 429 kts 65°
2026-04-29 02:20 -40.87743 -70.90642 17641 ft 440 kts 64°
2026-04-29 02:20 -40.86190 -70.87132 18326 ft 443 kts 64°
2026-04-29 02:20 -40.84603 -70.83634 19059 ft 444 kts 63°
2026-04-29 02:20 -40.82994 -70.80133 19686 ft 447 kts 63°
2026-04-29 02:21 -40.81383 -70.76647 20247 ft 452 kts 63°
2026-04-29 02:21 -40.79731 -70.73079 20809 ft 457 kts 63°
2026-04-29 02:21 -40.78069 -70.69490 21406 ft 460 kts 62°
2026-04-29 02:21 -40.76395 -70.65874 21985 ft 464 kts 62°
2026-04-29 02:22 -40.74694 -70.62241 22527 ft 468 kts 61°
2026-04-29 02:22 -40.72932 -70.58624 23178 ft 469 kts 59°
2026-04-29 02:22 -40.71137 -70.55016 23716 ft 471 kts 59°
2026-04-29 02:22 -40.69321 -70.51391 24151 ft 477 kts 58°
2026-04-29 02:23 -40.67475 -70.47708 24460 ft 485 kts 58°
2026-04-29 02:23 -40.65614 -70.43988 24928 ft 487 kts 57°
2026-04-29 02:23 -40.63748 -70.40249 25429 ft 489 kts 57°
2026-04-29 02:23 -40.61879 -70.36500 25889 ft 492 kts 57°
2026-04-29 02:24 -40.59997 -70.32722 26311 ft 495 kts 57°
2026-04-29 02:24 -40.58102 -70.28916 26695 ft 499 kts 57°
2026-04-29 02:24 -40.56182 -70.25067 27071 ft 503 kts 57°
2026-04-29 02:25 -40.52318 -70.17331 27875 ft 510 kts 56°
2026-04-29 02:25 -40.50351 -70.13402 28116 ft 517 kts 56°
2026-04-29 02:25 -40.48363 -70.09438 28522 ft 519 kts 56°
2026-04-29 02:25 -40.46374 -70.05476 28958 ft 520 kts 56°
2026-04-29 02:26 -40.44372 -70.01493 29364 ft 523 kts 56°
2026-04-29 02:26 -40.42364 -69.97503 29675 ft 525 kts 56°
2026-04-29 02:26 -40.40346 -69.93499 30044 ft 526 kts 56°
2026-04-29 02:26 -40.38324 -69.89491 30394 ft 527 kts 56°
2026-04-29 02:27 -40.36292 -69.85468 30708 ft 529 kts 55°
2026-04-29 02:27 -40.34942 -69.82798 30892 ft 530 kts 55°
2026-04-29 02:27 -40.32902 -69.78768 31234 ft 531 kts 55°
2026-04-29 02:27 -40.30856 -69.74733 31542 ft 532 kts 55°
2026-04-29 02:28 -40.28807 -69.70696 31887 ft 532 kts 55°
2026-04-29 02:28 -40.26760 -69.66667 32294 ft 530 kts 55°
2026-04-29 02:28 -40.24719 -69.62657 32724 ft 527 kts 55°
2026-04-29 02:28 -40.22689 -69.58672 33174 ft 525 kts 55°
2026-04-29 02:29 -40.20665 -69.54705 33566 ft 523 kts 55°
2026-04-29 02:29 -40.18645 -69.50750 33915 ft 521 kts 54°
2026-04-29 02:29 -40.16647 -69.46842 34440 ft 514 kts 54°
2026-04-29 02:29 -40.14667 -69.42974 34850 ft 511 kts 54°
2026-04-29 02:30 -40.12688 -69.39115 35093 ft 511 kts 53°
2026-04-29 02:30 -40.10704 -69.35252 35296 ft 513 kts 53°
2026-04-29 02:30 -40.08716 -69.31387 35612 ft 509 kts 53°
2026-04-29 02:30 -40.06752 -69.27568 36037 ft 505 kts 53°
2026-04-29 02:31 -40.04787 -69.23755 36290 ft 505 kts 53°
2026-04-29 02:31 -40.02820 -69.19944 36497 ft 506 kts 53°
2026-04-29 02:31 -40.00850 -69.16130 36687 ft 506 kts 53°
2026-04-29 02:32 -39.96894 -69.08488 36679 ft 507 kts 53°
2026-04-29 02:32 -39.92962 -69.00905 36674 ft 503 kts 53°
2026-04-29 02:33 -39.89044 -68.93369 36675 ft 501 kts 53°
2026-04-29 02:33 -39.85139 -68.85876 36665 ft 499 kts 52°
2026-04-29 02:34 -39.81231 -68.78396 36667 ft 499 kts 52°
2026-04-29 02:34 -39.77340 -68.70969 36663 ft 500 kts 52°
2026-04-29 02:35 -39.73423 -68.63507 36663 ft 500 kts 52°
2026-04-29 02:35 -39.69486 -68.56025 36663 ft 502 kts 52°
2026-04-29 02:36 -39.65529 -68.48521 36661 ft 504 kts 52°
2026-04-29 02:36 -39.61553 -68.41000 36652 ft 505 kts 52°
2026-04-29 02:37 -39.57572 -68.33487 36645 ft 505 kts 52°
2026-04-29 02:37 -39.55579 -68.29731 36647 ft 505 kts 52°
2026-04-29 02:38 -39.49592 -68.18478 36673 ft 505 kts 52°
2026-04-29 02:38 -39.45598 -68.10994 36649 ft 505 kts 51°
2026-04-29 02:39 -39.41604 -68.03527 36629 ft 504 kts 51°
2026-04-29 02:39 -39.37607 -67.96073 36637 ft 505 kts 51°
2026-04-29 02:40 -39.33599 -67.88615 36647 ft 505 kts 51°
2026-04-29 02:40 -39.29579 -67.81153 36647 ft 506 kts 51°
2026-04-29 02:41 -39.25544 -67.73681 36648 ft 507 kts 51°
2026-04-29 02:41 -39.21499 -67.66207 36652 ft 508 kts 51°
2026-04-29 02:42 -39.17437 -67.58719 36645 ft 509 kts 51°
2026-04-29 02:42 -39.13370 -67.51237 36652 ft 509 kts 51°
2026-04-29 02:43 -39.09297 -67.43764 36620 ft 509 kts 51°
2026-04-29 02:43 -39.05248 -67.36350 36644 ft 509 kts 50°
2026-04-29 02:44 -39.01171 -67.28904 36651 ft 509 kts 50°
2026-04-29 02:44 -38.97084 -67.21457 36652 ft 509 kts 50°
2026-04-29 02:45 -38.92995 -67.14023 36662 ft 509 kts 50°
2026-04-29 02:45 -38.88897 -67.06589 36652 ft 509 kts 50°
2026-04-29 02:46 -38.84800 -66.99176 36659 ft 509 kts 50°
2026-04-29 02:46 -38.80700 -66.91772 36663 ft 508 kts 50°
2026-04-29 02:47 -38.76595 -66.84378 36661 ft 508 kts 50°
2026-04-29 02:47 -38.72493 -66.77006 36665 ft 508 kts 50°
2026-04-29 02:48 -38.68388 -66.69644 36673 ft 507 kts 49°
2026-04-29 02:48 -38.64281 -66.62296 36673 ft 507 kts 49°
2026-04-29 02:49 -38.60171 -66.54961 36661 ft 507 kts 49°
2026-04-29 02:49 -38.56085 -66.47683 36668 ft 506 kts 49°
2026-04-29 02:50 -38.51949 -66.40332 36674 ft 506 kts 49°
2026-04-29 02:50 -38.47838 -66.33044 36674 ft 506 kts 49°
2026-04-29 02:51 -38.43718 -66.25757 36688 ft 509 kts 49°
2026-04-29 02:51 -38.39556 -66.18417 36683 ft 517 kts 48°
2026-04-29 02:52 -38.35303 -66.10931 36689 ft 522 kts 48°
2026-04-29 02:52 -38.31031 -66.03419 36684 ft 524 kts 48°
2026-04-29 02:53 -38.26744 -65.95899 36697 ft 524 kts 48°
2026-04-29 02:53 -38.22460 -65.88403 36695 ft 524 kts 47°
2026-04-29 02:54 -38.18170 -65.80916 36705 ft 523 kts 47°
2026-04-29 02:54 -38.13884 -65.73454 36714 ft 522 kts 47°
2026-04-29 02:55 -38.09597 -65.66008 36718 ft 521 kts 47°
2026-04-29 02:55 -38.05309 -65.58576 36664 ft 520 kts 47°
2026-04-29 02:56 -38.01024 -65.51165 36709 ft 520 kts 47°
2026-04-29 02:56 -37.96762 -65.43814 36732 ft 521 kts 47°
2026-04-29 02:57 -37.92461 -65.36411 36738 ft 522 kts 47°
2026-04-29 02:57 -37.88137 -65.28984 36713 ft 524 kts 47°
2026-04-29 02:58 -37.83808 -65.21565 36733 ft 524 kts 47°
2026-04-29 02:58 -37.79469 -65.14144 36734 ft 524 kts 47°
2026-04-29 02:59 -37.75130 -65.06741 36732 ft 524 kts 47°
2026-04-29 02:59 -37.70781 -64.99337 36682 ft 524 kts 47°
2026-04-29 03:00 -37.66435 -64.91955 36735 ft 524 kts 47°
2026-04-29 03:00 -37.62810 -64.85811 36737 ft 525 kts 47°
2026-04-29 03:01 -37.58439 -64.78419 36745 ft 526 kts 47°
2026-04-29 03:01 -37.54048 -64.71007 36745 ft 528 kts 47°
2026-04-29 03:02 -37.49648 -64.63597 36740 ft 528 kts 47°
2026-04-29 03:02 -37.45235 -64.56179 36738 ft 529 kts 47°
2026-04-29 03:03 -37.40815 -64.48767 36742 ft 529 kts 47°
2026-04-29 03:03 -37.36399 -64.41376 36695 ft 528 kts 47°
2026-04-29 03:04 -37.32149 -64.33797 36727 ft 533 kts 54°
2026-04-29 03:04 -37.28449 -64.25695 36744 ft 536 kts 56°
2026-04-29 03:05 -37.24819 -64.17484 36757 ft 537 kts 56°
2026-04-29 03:05 -37.21132 -64.09317 36760 ft 537 kts 55°
2026-04-29 03:06 -37.17395 -64.01188 36746 ft 538 kts 55°
2026-04-29 03:06 -37.13639 -63.93070 36762 ft 538 kts 55°
2026-04-29 03:07 -37.09878 -63.84956 36772 ft 538 kts 55°
2026-04-29 03:07 -37.06123 -63.76861 36773 ft 538 kts 55°
2026-04-29 03:08 -37.02382 -63.68816 36779 ft 537 kts 55°
2026-04-29 03:08 -36.98620 -63.60744 36779 ft 536 kts 55°
2026-04-29 03:09 -36.94855 -63.52687 36789 ft 535 kts 55°
2026-04-29 03:09 -36.91089 -63.44646 36753 ft 535 kts 55°
2026-04-29 03:10 -36.87327 -63.36635 36791 ft 535 kts 56°
2026-04-29 03:10 -36.83546 -63.28604 36800 ft 536 kts 56°
2026-04-29 03:11 -36.79754 -63.20569 36804 ft 537 kts 56°
2026-04-29 03:11 -36.75950 -63.12525 36789 ft 539 kts 56°
2026-04-29 03:12 -36.72138 -63.04485 36806 ft 539 kts 56°
2026-04-29 03:12 -36.68317 -62.96445 36808 ft 539 kts 56°
2026-04-29 03:13 -36.64482 -62.88395 36815 ft 539 kts 56°
2026-04-29 03:13 -36.60643 -62.80357 36800 ft 539 kts 56°
2026-04-29 03:14 -36.56834 -62.72398 36818 ft 538 kts 56°
2026-04-29 03:14 -36.53629 -62.65718 36821 ft 537 kts 56°
2026-04-29 03:15 -36.45390 -62.48604 36829 ft 535 kts 57°
2026-04-29 03:16 -36.41562 -62.40683 36824 ft 534 kts 57°
2026-04-29 03:16 -36.37728 -62.32768 36839 ft 534 kts 57°
2026-04-29 03:17 -36.33915 -62.24913 36840 ft 534 kts 56°
2026-04-29 03:17 -36.30079 -62.17032 36842 ft 533 kts 57°
2026-04-29 03:18 -36.26243 -62.09166 36835 ft 532 kts 57°
2026-04-29 03:18 -36.22405 -62.01315 36842 ft 531 kts 57°
2026-04-29 03:19 -36.18567 -61.93482 36847 ft 531 kts 57°
2026-04-29 03:19 -36.14730 -61.85666 36850 ft 530 kts 57°
2026-04-29 03:20 -36.10896 -61.77876 36848 ft 530 kts 57°
2026-04-29 03:20 -36.07055 -61.70079 36850 ft 530 kts 57°
2026-04-29 03:21 -36.03220 -61.62300 36858 ft 529 kts 57°
2026-04-29 03:21 -35.99388 -61.54546 36857 ft 529 kts 57°
2026-04-29 03:22 -35.95550 -61.46797 36858 ft 529 kts 57°
2026-04-29 03:22 -35.91700 -61.39039 36865 ft 529 kts 57°
2026-04-29 03:23 -35.87852 -61.31302 36874 ft 530 kts 57°